Weather in Rogatin

Ukraine / Ivano-Frankovsk District     49°24′44″N   24°36′54″E
temp.,
°C
wind,
m/s
gust,
m/s
humid.,
%
clouds,
%
prec.,
mm/h
press.,
hPa
HPBL,
m
17 august, wed
wed1700:00+17wnw399381 1.4 1009223
03:00+16nw259744 1.6 1008116
06:00+15nw229939 0.0 100932
09:00+18nw2389100 0.0 1010282
12:00+22nw347299 0.0 1011718
15:00+25nw446159 0.6 10101343
18:00+22n3571100 0.3 1011558
21:00+19n22855 0.4 101216
18 august, thu
thu1800:00+17nw22905 0.0 101211
03:00+17nnw22925 0.0 101214
06:00+16nnw12935 0.0 101211
09:00+20nw23770 0.0 1013289
12:00+26n33550 0.0 10131102
15:00+28ne33470 0.0 10121588
18:00+28ene334812 0.0 10121700
21:00+22ene22724 0.0 101314
19 august, fri
fri1900:00+20ene22770 0.0 101311
03:00+18e11805 0.0 101311
06:00+17ene118029 0.0 101311
09:00+23e34615 0.0 1013243
12:00+28ese34455 0.0 10131144
15:00+30ese44387 0.0 10121537
18:00+29e4441100 0.0 10121453
21:00+22ene496694 0.0 1012132
20 august, sat
sat2000:00+20e397033 0.0 1012142
03:00+19e3475100 0.0 101253
06:00+18ese397790 0.0 1011160
09:00+23ese586342 0.0 1012336
12:00+29se674599 0.0 10111077
15:00+31se5438100 0.0 10101546
18:00+31e44405 0.0 10091256
21:00+21s4779100 0.6 1011120
21 august, sun
sun2100:00+19wnw1188100 1.9 101211
03:00+18wnw1195100 2.7 101213
06:00+17nw2297100 0.4 101247
09:00+20nw469064 1.5 1012483
12:00+23nnw3472100 0.1 1012851
15:00+25nw4367100 0.3 1011881
18:00+23wnw4679100 0.8 1012381
21:00+19nnw3894100 3.8 1012259